This is the latest recevied weather packets stored in our database for station/object W7DG. If no packets are shown the sender has not sent any weather packets the latest 10 day(s).
| Time | Temp. | Humidity | Pressure | Rain* | Wind** | Luminosity | Snow |
|---|---|---|---|---|---|---|---|
| 1788686289 | 12.22° C | 88% | 1016.5 hPa | 0 mm | - | - | - |
| 1788685389 | 12.22° C | 88% | 1016.5 hPa | 0 mm | - | - | - |
| 1788684489 | 12.22° C | 88% | 1016.5 hPa | 0 mm | - | - | - |
| 1788683589 | 12.22° C | 87% | 1016.7 hPa | 0 mm | - | - | - |
| 1788682689 | 12.78° C | 87% | 1016.8 hPa | 0 mm | - | - | - |
| 1788681789 | 12.78° C | 86% | 1016.8 hPa | 0 mm | - | - | - |
| 1788680890 | 12.78° C | 86% | 1016.8 hPa | 0 mm | - | - | - |
| 1788679990 | 12.78° C | 85% | 1016.6 hPa | 0 mm | - | - | - |
| 1788679451 | 13.33° C | 84% | 1016.8 hPa | 0 mm | - | - | - |
| 1788679090 | 13.33° C | 84% | 1016.8 hPa | 0 mm | - | - | - |
| 1788678190 | 12.78° C | 84% | 1016.6 hPa | 0 mm | - | - | - |
| 1788677290 | 13.33° C | 84% | 1016.7 hPa | 0 mm | - | - | - |
| 1788676390 | 13.33° C | 84% | 1016.5 hPa | 0 mm | - | - | - |
| 1788675490 | 13.33° C | 83% | 1016.7 hPa | 0 mm | - | - | - |
| 1788674590 | 13.33° C | 83% | 1017.1 hPa | 0 mm | - | - | - |
| 1788673690 | 13.33° C | 83% | 1017.2 hPa | 0 mm | - | - | - |
| 1788672790 | 13.33° C | 83% | 1017.2 hPa | 0 mm | - | - | - |
| 1788671890 | 13.33° C | 82% | 1017.4 hPa | 0 mm | - | - | - |
| 1788670990 | 13.89° C | 81% | 1017.4 hPa | 0 mm | - | - | - |
| 1788670090 | 14.44° C | 80% | 1017.4 hPa | 0 mm | - | - | - |
| 1788669189 | 14.44° C | 79% | 1017.4 hPa | 0 mm | - | - | - |
| 1788668289 | 14.44° C | 79% | 1017.3 hPa | 0 mm | - | - | - |
| 1788667389 | 15° C | 79% | 1017.3 hPa | 0 mm | - | - | - |
| 1788666489 | 15° C | 79% | 1017.2 hPa | 0 mm | - | - | - |
| 1788665589 | 14.44° C | 80% | 1017.2 hPa | 0 mm | - | - | - |
* Rain latest hour (hover to see other rain measurements)
** Current wind speed in m/s (hover to see current wind gust speed)